Flight Track Log - Related Links

Times and Time Zones

All times are in EDT time to prevent confusion due to time zone crossing. See the EGF4269 flight status page for this flight to view local times or setup timezone preferences in your user account.

Time Position Orientation Groundspeed Altitude Reporting Facility
EDT Latitude Longitude Course Direction KTS MPH feet Rate Location/Type
Sat 08:28:05 PM 41.9833 -87.8500 77° East 177 204 2,100  Level Chicago TRACON
Sat 08:29:05 PM 41.9833 -87.7667 90° East 245 282 4,200 2,407 Climbing Chicago TRACON
Sat 08:30:00 PM 42.0382 -87.4964 83° East  Level FlightAware Approximate
Sat 08:30:57 PM 42.0158 -87.6050 75° East 268 308 9,000  Level Chicago Center
Sat 08:31:00 PM 42.0515 -87.3567 78° East  Level FlightAware Approximate
Sat 08:31:58 PM 42.0267 -87.4989 82° East 283 326 10,500  Level Chicago Center
Sat 08:32:00 PM 42.0728 -87.2187 78° East  Level FlightAware Approximate
Sat 08:32:59 PM 42.0422 -87.3706 81° East 342 394 11,000  Level Chicago Center
Sat 08:33:00 PM 42.0881 -87.1214 77° East  Level FlightAware Approximate
Sat 08:34:00 PM 42.0592 -87.2050 82° East 369 425 11,000  Level Chicago Center
Sat 08:35:01 PM 42.0744 -87.0650 82° East 375 432 11,000  Level Chicago Center
Sat 08:36:03 PM 42.0889 -86.9242 82° East 379 436 11,000  Level Chicago Center
Sat 08:37:04 PM 42.1053 -86.7878 81° East 372 428 11,000  Level Chicago Center
Sat 08:38:05 PM 42.1206 -86.6375 82° East 377 434 11,000  Level Chicago Center
Sat 08:39:06 PM 42.1361 -86.4992 81° East 374 430 11,000  Level Chicago Center
Sat 08:40:07 PM 42.1511 -86.3614 82° East 372 428 11,000  Level Chicago Center
Sat 08:41:09 PM 42.1650 -86.2236 82° East 372 428 11,000  Level Chicago Center
Sat 08:42:10 PM 42.1628 -86.0886 91° East 363 418 11,000 -689 Level Chicago Center
Sat 08:43:11 PM 42.1567 -85.9789 94° East 307 353 9,600 -1,623 Descending Chicago Center
Sat 08:44:12 PM 42.1519 -85.8747 93° East 284 327 7,700 -1,820 Descending Chicago Center
Sat 08:45:13 PM 42.1492 -85.7708 92° East 279 321 5,900 -1,770 Descending Chicago Center

Login

Don't have an account? Register now (free) for customized features, flight alerts, and more!